2020-12-24 00:07:49 r, 19.36m,0000000001Hz,0000306161c,0000000.664s,-009.4C,00002191
2020-12-24 00:17:47 r, 19.39m,0000000002Hz,0000314639c,0000000.683s,-009.7C,00002191
2020-12-24 00:27:49 r, 19.42m,0000000001Hz,0000322444c,0000000.700s,-009.7C,00002191
2020-12-24 00:37:48 r, 19.45m,0000000001Hz,0000331121c,0000000.719s,-009.7C,00002191
2020-12-24 00:47:47 r, 19.49m,0000000001Hz,0000342461c,0000000.743s,-009.7C,00002191
2020-12-24 00:57:49 r, 19.52m,0000000001Hz,0000353261c,0000000.767s,-009.7C,00002191
2020-12-24 01:07:48 r, 19.57m,0000000002Hz,0000367490c,0000000.798s,-010.0C,00002191
2020-12-24 01:17:47 r, 19.61m,0000000001Hz,0000381072c,0000000.827s,-010.0C,00002191
2020-12-24 01:27:49 r, 19.65m,0000000001Hz,0000396219c,0000000.860s,-010.0C,00002191
2020-12-24 01:37:48 r, 19.69m,0000000001Hz,0000412626c,0000000.895s,-010.0C,00002191
2020-12-24 01:47:47 r, 19.74m,0000000001Hz,0000433810c,0000000.941s,-010.0C,00002191
2020-12-24 01:57:48 r, 19.86m,0000000001Hz,0000479015c,0000001.040s,-010.4C,00002191
2020-12-24 02:07:48 r, 19.99m,0000000001Hz,0000542150c,0000001.177s,-010.4C,00002191
2020-12-24 02:17:47 r, 20.09m,0000000001Hz,0000592024c,0000001.285s,-010.4C,00002191
2020-12-24 02:27:48 r, 20.17m,0000000001Hz,0000636251c,0000001.381s,-010.4C,00002191
2020-12-24 02:37:49 r, 20.21m,0000000000Hz,0000660677c,0000001.434s,-010.4C,00002191
2020-12-24 02:47:47 r, 20.19m,0000000001Hz,0000650665c,0000001.412s,-010.4C,00002191
2020-12-24 02:57:48 r, 20.04m,0000000001Hz,0000565631c,0000001.227s,-010.4C,00002191
2020-12-24 03:07:48 r, 19.98m,0000000001Hz,0000532894c,0000001.156s,-010.0C,00002191
2020-12-24 03:17:47 r, 20.15m,0000000001Hz,0000625621c,0000001.358s,-009.7C,00002191
2020-12-24 03:27:49 r, 20.14m,0000000000Hz,0000622083c,0000001.350s,-009.7C,00002191
2020-12-24 03:37:48 r, 20.13m,0000000001Hz,0000615131c,0000001.335s,-009.7C,00002191
2020-12-24 03:47:47 r, 20.15m,0000000001Hz,0000625956c,0000001.358s,-009.7C,00002191
2020-12-24 03:57:48 r, 20.16m,0000000001Hz,0000631434c,0000001.370s,-009.7C,00002191
2020-12-24 04:07:48 r, 20.17m,0000000001Hz,0000635369c,0000001.379s,-009.7C,00002191
2020-12-24 04:17:47 r, 20.12m,0000000001Hz,0000606389c,0000001.316s,-009.7C,00002191
2020-12-24 04:27:48 r, 20.13m,0000000001Hz,0000616169c,0000001.337s,-010.0C,00002191
2020-12-24 04:37:48 r, 20.21m,0000000001Hz,0000663261c,0000001.439s,-010.0C,00002191
2020-12-24 04:47:47 r, 20.30m,0000000000Hz,0000720846c,0000001.564s,-010.0C,00002191
2020-12-24 04:57:48 r, 20.25m,0000000001Hz,0000684475c,0000001.485s,-010.0C,00002191
2020-12-24 05:07:49 r, 19.98m,0000000001Hz,0000533689c,0000001.158s,-009.7C,00002191
2020-12-24 05:17:47 r, 19.87m,0000000001Hz,0000484675c,0000001.052s,-009.7C,00002191
2020-12-24 05:27:49 r, 19.53m,0000000002Hz,0000355218c,0000000.771s,-009.1C,00002191
2020-12-24 05:37:48 r, 19.45m,0000000001Hz,0000332993c,0000000.723s,-009.1C,00002191
2020-12-24 05:47:47 r, 19.26m,0000000002Hz,0000277501c,0000000.602s,-008.8C,00002191
2020-12-24 05:57:49 r, 19.22m,0000000002Hz,0000267735c,0000000.581s,-008.8C,00002191
2020-12-24 06:07:48 r, 19.15m,0000000001Hz,0000250166c,0000000.543s,-008.4C,00002191
2020-12-24 06:17:47 r, 19.23m,0000000002Hz,0000269758c,0000000.585s,-008.4C,00002191
2020-12-24 06:27:48 r, 19.04m,0000000002Hz,0000224639c,0000000.487s,-008.1C,00002191
2020-12-24 06:37:48 r, 18.94m,0000000003Hz,0000204491c,0000000.444s,-008.1C,00002191
2020-12-24 06:47:47 r, 18.98m,0000000002Hz,0000213831c,0000000.464s,-008.1C,00002191
2020-12-24 06:57:48 r, 18.85m,0000000003Hz,0000189075c,0000000.410s,-007.8C,00002191
2020-12-24 07:07:48 r, 18.50m,0000000003Hz,0000137076c,0000000.297s,-007.8C,00002191
2020-12-24 07:17:47 r, 17.66m,0000000007Hz,0000063383c,0000000.138s,-007.8C,00002191
2020-12-24 07:27:48 r, 16.28m,0000000025Hz,0000017715c,0000000.038s,-007.8C,00002191
2020-12-24 07:37:49 r, 14.65m,0000000116Hz,0000003955c,0000000.009s,-007.8C,00002191
2020-12-24 07:47:47 r, 12.85m,0000000615Hz,0000000000c,0000000.000s,-007.8C,00002191
2020-12-24 07:57:49 r, 10.90m,0000003664Hz,0000000000c,0000000.000s,-007.8C,00002191
2020-12-24 08:07:48 r, 09.26m,0000016682Hz,0000000000c,0000000.000s,-007.8C,00002191
2020-12-24 08:17:47 r, 08.06m,0000050475Hz,0000000000c,0000000.000s,-007.8C,00002191
2020-12-24 08:27:49 r, 07.20m,0000111999Hz,0000000000c,0000000.000s,-007.5C,00002191
2020-12-24 08:37:48 r, 06.57m,0000199500Hz,0000000000c,0000000.000s,-007.5C,00002191
2020-12-24 08:47:47 r, 06.08m,0000312344Hz,0000000000c,0000000.000s,-007.5C,00002191
2020-12-24 08:57:47 r, 00.00m,0000433012Hz,0000000000c,0000000.000s,-007.1C,00002191
2020-12-24 09:07:49 r, 00.00m,0000562142Hz,0000000000c,0000000.000s,-006.8C,00002191
2020-12-24 09:17:47 r, 00.00m,0000599883Hz,0000000000c,0000000.000s,-006.8C,00002191
2020-12-24 09:27:47 r, 00.00m,0000599760Hz,0000000000c,0000000.000s,-006.5C,00002191
2020-12-24 09:37:49 r, 00.00m,0000599698Hz,0000000000c,0000000.000s,-005.9C,00002191
2020-12-24 09:47:47 r, 00.00m,0000599655Hz,0000000000c,0000000.000s,-005.9C,00002191
2020-12-24 09:57:47 r, 00.00m,0000599639Hz,0000000000c,0000000.000s,-005.2C,00002191
2020-12-24 10:07:48 r, 00.00m,0000599698Hz,0000000000c,0000000.000s,-004.6C,00002191
2020-12-24 10:17:47 r, 00.00m,0000599433Hz,0000000000c,0000000.000s,-004.2C,00002191
2020-12-24 10:27:47 r, 00.00m,0000599502Hz,0000000000c,0000000.000s,-003.6C,00002191
2020-12-24 10:37:48 r, 00.00m,0000599360Hz,0000000000c,0000000.000s,-002.6C,00002191
2020-12-24 10:47:47 r, 00.00m,0000599281Hz,0000000000c,0000000.000s,-001.7C,00002191
2020-12-24 10:57:47 r, 00.00m,0000599368Hz,0000000000c,0000000.000s,-000.7C,00002191
2020-12-24 11:07:48 r, 00.00m,0000599379Hz,0000000000c,0000000.000s,-000.4C,00002191
2020-12-24 11:17:47 r, 00.00m,0000599135Hz,0000000000c,0000000.000s,-000.4C,00002191
2020-12-24 11:27:47 r, 00.00m,0000599297Hz,0000000000c,0000000.000s, 000.1C,00002191
2020-12-24 11:37:49 r, 00.00m,0000599343Hz,0000000000c,0000000.000s,-000.4C,00002191
2020-12-24 11:47:47 r, 00.00m,0000599287Hz,0000000000c,0000000.000s, 000.1C,00002191
2020-12-24 11:57:47 r, 00.00m,0000599260Hz,0000000000c,0000000.000s, 000.3C,00002191
2020-12-24 12:07:49 r, 00.00m,0000599223Hz,0000000000c,0000000.000s, 000.3C,00002191
2020-12-24 12:17:47 r, 00.00m,0000599305Hz,0000000000c,0000000.000s,-001.0C,00002191
2020-12-24 12:27:47 r, 00.00m,0000599528Hz,0000000000c,0000000.000s,-002.3C,00002191
2020-12-24 12:37:47 r, 00.00m,0000599574Hz,0000000000c,0000000.000s,-003.0C,00002191
2020-12-24 12:47:47 r, 00.00m,0000599576Hz,0000000000c,0000000.000s,-003.3C,00002191
2020-12-24 12:57:47 r, 00.00m,0000599530Hz,0000000000c,0000000.000s,-003.6C,00002191
2020-12-24 13:07:47 r, 00.00m,0000599580Hz,0000000000c,0000000.000s,-003.6C,00002191
2020-12-24 13:17:47 r, 00.00m,0000599637Hz,0000000000c,0000000.000s,-003.6C,00002191
2020-12-24 13:27:47 r, 00.00m,0000599464Hz,0000000000c,0000000.000s,-003.6C,00002191
2020-12-24 13:37:48 r, 00.00m,0000599495Hz,0000000000c,0000000.000s,-003.6C,00002191
2020-12-24 13:47:47 r, 00.00m,0000599565Hz,0000000000c,0000000.000s,-003.6C,00002191
2020-12-24 13:57:47 r, 00.00m,0000599610Hz,0000000000c,0000000.000s,-003.6C,00002191
2020-12-24 14:07:49 r, 00.00m,0000599566Hz,0000000000c,0000000.000s,-003.6C,00002191
2020-12-24 14:17:47 r, 00.00m,0000599541Hz,0000000000c,0000000.000s,-003.6C,00002191
2020-12-24 14:27:47 r, 00.00m,0000599650Hz,0000000000c,0000000.000s,-003.6C,00002191
2020-12-24 14:37:49 r, 00.00m,0000599634Hz,0000000000c,0000000.000s,-003.6C,00002191
2020-12-24 14:47:47 r, 00.00m,0000599630Hz,0000000000c,0000000.000s,-003.6C,00002191
2020-12-24 14:57:47 r, 00.00m,0000599571Hz,0000000000c,0000000.000s,-003.9C,00002191
2020-12-24 15:07:48 r, 00.00m,0000599634Hz,0000000000c,0000000.000s,-003.9C,00002191
2020-12-24 15:17:47 r, 00.00m,0000599704Hz,0000000000c,0000000.000s,-003.9C,00002191
2020-12-24 15:27:47 r, 00.00m,0000508237Hz,0000000000c,0000000.000s,-003.9C,00002191
2020-12-24 15:37:47 r, 00.00m,0000451454Hz,0000000000c,0000000.000s,-003.9C,00002191
2020-12-24 15:47:47 r, 05.83m,0000394493Hz,0000000000c,0000000.000s,-003.6C,00002191
2020-12-24 15:57:47 r, 06.11m,0000304001Hz,0000000000c,0000000.000s,-003.3C,00002191
2020-12-24 16:07:49 r, 06.45m,0000221251Hz,0000000000c,0000000.000s,-003.6C,00002191
2020-12-24 16:17:47 r, 06.99m,0000136107Hz,0000000000c,0000000.000s,-004.2C,00002191
2020-12-24 16:27:47 r, 07.53m,0000082905Hz,0000000000c,0000000.000s,-004.6C,00002191
2020-12-24 16:37:49 r, 08.27m,0000041548Hz,0000000000c,0000000.000s,-004.9C,00002191
2020-12-24 16:47:47 r, 09.50m,0000013321Hz,0000000000c,0000000.000s,-005.2C,00002191
2020-12-24 16:57:47 r, 11.09m,0000003118Hz,0000000000c,0000000.000s,-005.5C,00002191
2020-12-24 17:07:47 r, 12.79m,0000000649Hz,0000000000c,0000000.000s,-005.5C,00002191
2020-12-24 17:17:48 r, 14.72m,0000000109Hz,0000004248c,0000000.009s,-005.2C,00002191
2020-12-24 17:27:47 r, 16.30m,0000000025Hz,0000018221c,0000000.040s,-004.6C,00002191
2020-12-24 17:37:48 r, 16.97m,0000000014Hz,0000033628c,0000000.073s,-004.6C,00002191
2020-12-24 17:47:47 r, 17.33m,0000000009Hz,0000046624c,0000000.101s,-004.2C,00002191
2020-12-24 17:57:47 r, 17.41m,0000000009Hz,0000050434c,0000000.109s,-003.9C,00002191
2020-12-24 18:07:47 r, 17.50m,0000000009Hz,0000055010c,0000000.119s,-003.6C,00002191
2020-12-24 18:17:49 r, 17.70m,0000000007Hz,0000066186c,0000000.144s,-003.6C,00002191
2020-12-24 18:27:47 r, 17.64m,0000000007Hz,0000062598c,0000000.136s,-003.6C,00002191
2020-12-24 18:37:49 r, 17.98m,0000000005Hz,0000085013c,0000000.184s,-003.6C,00002191
2020-12-24 18:47:47 r, 17.44m,0000000009Hz,0000051996c,0000000.113s,-003.6C,00002191
2020-12-24 18:57:47 r, 17.31m,0000000010Hz,0000046035c,0000000.100s,-003.6C,00002191
2020-12-24 19:07:49 r, 16.99m,0000000014Hz,0000034385c,0000000.075s,-003.3C,00002191
2020-12-24 19:17:47 r, 17.09m,0000000013Hz,0000037595c,0000000.082s,-003.0C,00002191
2020-12-24 19:27:47 r, 17.08m,0000000012Hz,0000037140c,0000000.081s,-003.0C,00002191
2020-12-24 19:37:47 r, 17.09m,0000000013Hz,0000037379c,0000000.081s,-002.6C,00002191
2020-12-24 19:47:48 r, 17.10m,0000000012Hz,0000037898c,0000000.082s,-002.3C,00002191
2020-12-24 19:57:47 r, 17.11m,0000000012Hz,0000038347c,0000000.083s,-002.3C,00002191
2020-12-24 20:07:48 r, 17.09m,0000000012Hz,0000037385c,0000000.081s,-002.3C,00002191
2020-12-24 20:17:47 r, 17.08m,0000000012Hz,0000037197c,0000000.081s,-002.3C,00002191
2020-12-24 20:27:47 r, 17.19m,0000000011Hz,0000041002c,0000000.089s,-002.0C,00002191
2020-12-24 20:37:47 r, 17.12m,0000000012Hz,0000038858c,0000000.084s,-002.0C,00002191
2020-12-24 20:47:49 r, 17.01m,0000000013Hz,0000034871c,0000000.076s,-002.3C,00002191
2020-12-24 20:57:47 r, 17.01m,0000000013Hz,0000035133c,0000000.076s,-002.0C,00002191
2020-12-24 21:07:49 r, 16.98m,0000000014Hz,0000034269c,0000000.074s,-002.0C,00002191
2020-12-24 21:17:47 r, 16.99m,0000000014Hz,0000034353c,0000000.075s,-001.7C,00002191
2020-12-24 21:27:47 r, 17.01m,0000000013Hz,0000034845c,0000000.076s,-001.7C,00002191
2020-12-24 21:37:49 r, 17.01m,0000000013Hz,0000035261c,0000000.077s,-001.7C,00002191
2020-12-24 21:47:47 r, 17.04m,0000000013Hz,0000036064c,0000000.078s,-001.7C,00002191
2020-12-24 21:57:47 r, 17.05m,0000000013Hz,0000036483c,0000000.079s,-001.7C,00002191
2020-12-24 22:07:47 r, 17.09m,0000000012Hz,0000037742c,0000000.082s,-001.7C,00002191
2020-12-24 22:17:48 r, 17.21m,0000000011Hz,0000042174c,0000000.092s,-001.7C,00002191
2020-12-24 22:27:47 r, 17.51m,0000000009Hz,0000055741c,0000000.121s,-001.7C,00002191
2020-12-24 22:37:48 r, 17.94m,0000000006Hz,0000082067c,0000000.178s,-001.7C,00002191
2020-12-24 22:47:47 r, 18.38m,0000000004Hz,0000123010c,0000000.267s,-001.7C,00002191
2020-12-24 22:57:47 r, 18.36m,0000000003Hz,0000121275c,0000000.263s,-002.0C,00002191
2020-12-24 23:07:49 r, 18.67m,0000000002Hz,0000161703c,0000000.351s,-002.0C,00002191
2020-12-24 23:17:47 r, 18.74m,0000000002Hz,0000171285c,0000000.372s,-002.3C,00002191
2020-12-24 23:27:47 r, 18.81m,0000000003Hz,0000180742c,0000000.392s,-002.3C,00002191
2020-12-24 23:37:49 r, 18.86m,0000000003Hz,0000189815c,0000000.412s,-002.3C,00002191
2020-12-24 23:47:47 r, 18.89m,0000000003Hz,0000194771c,0000000.423s,-002.3C,00002191
2020-12-24 23:57:46 r, 18.73m,0000000002Hz,0000168067c,0000000.365s,-002.3C,00002191
